FW8346 Weather Reports


Display with metric or nautical units.
time (UTC)temp
F
wind
direction
speed
MPH
gust
MPH
rain 1hr
in
rain 24hr
in
rain mn
in
humidity
%
barometer
mb
20260502170451 59 257 4.0 10.0 0.00 0.00 0.00 33 1014.9
20260502163951 58 97 3.0 10.0 0.00 0.00 0.00 35 1015.1
20260502163715 58 190 3.0 10.0 0.00 0.00 0.00 34 1015.2
20260502162939 58 260 3.0 9.0 0.00 0.00 0.00 35 1015.3
20260502162433 58 122 2.0 9.0 0.00 0.00 0.00 35 1015.4
20260502161927 58 203 2.0 9.0 0.00 0.00 0.00 36 1015.4
20260502161653 57 37 3.0 9.0 0.00 0.00 0.00 34 1015.6
20260502160914 57 217 3.0 9.0 0.00 0.00 0.00 34 1015.7
20260502160409 57 264 2.0 9.0 0.00 0.00 0.00 36 1015.8
20260502152334 55 321 2.0 7.0 0.00 0.00 0.00 34 1016.3
20260502151833 55 341 2.0 7.0 0.00 0.00 0.00 37 1016.4
20260502151332 55 319 3.0 7.0 0.00 0.00 0.00 36 1016.4
20260502151104 55 241 3.0 9.0 0.00 0.00 0.00 37 1016.5
20260502150333 55 279 3.0 9.0 0.00 0.00 0.00 37 1016.5
20260502130553 46 233 0.0 2.0 0.00 0.00 0.00 55 1017.3
20260502123318 42 221 0.0 0.0 0.00 0.00 0.00 59 1017.4
20260502123050 42 228 0.0 0.0 0.00 0.00 0.00 61 1017.3
20260502122548 42 236 0.0 1.0 0.00 0.00 0.00 62 1017.3
20260502121818 41 249 0.0 1.0 0.00 0.00 0.00 63 1017.3
20260502121319 40 246 0.0 1.0 0.00 0.00 0.00 64 1017.3
20260502121051 40 236 0.0 0.0 0.00 0.00 0.00 65 1017.3
20260502120313 40 236 0.0 0.0 0.00 0.00 0.00 65 1017.3
20260502115813 39 237 0.0 0.0 0.00 0.00 0.00 68 1017.2
20260502115314 37 237 0.0 0.0 0.00 0.00 0.00 70 1017.2
20260502114818 36 236 0.0 0.0 0.00 0.00 0.00 72 1017.2
20260502114813 37 236 0.0 0.0 0.00 0.00 0.00 71 1017.2
20260502114043 35 236 0.0 0.0 0.00 0.00 0.00 74 1017.3
20260502113314 35 236 0.0 0.0 0.00 0.00 0.00 75 1017.3
20260502112812 34 236 0.0 0.0 0.00 0.00 0.00 77 1017.3
20260502112313 33 236 0.0 0.0 0.00 0.00 0.00 79 1017.2
20260502111811 32 236 0.0 0.0 0.00 0.00 0.00 79 1017.2
20260502111313 31 236 0.0 0.0 0.00 0.00 0.00 81 1017.3
20260502110812 31 238 0.0 0.0 0.00 0.00 0.00 80 1017.3
20260502110311 31 238 0.0 0.0 0.00 0.00 0.00 79 1017.3
20260502105813 31 239 0.0 0.0 0.00 0.00 0.00 79 1017.2
20260502105313 31 239 0.0 0.0 0.00 0.00 0.00 78 1017.3
20260502104811 32 239 0.0 0.0 0.00 0.00 0.00 77 1017.3
20260502104308 32 239 0.0 1.0 0.00 0.00 0.00 77 1017.3
20260502103809 32 239 0.0 1.0 0.00 0.00 0.00 77 1017.3
20260502103540 32 239 0.0 0.0 0.00 0.00 0.00 76 1017.3
20260502102808 32 239 0.0 0.0 0.00 0.00 0.00 77 1017.2
20260502102307 32 239 0.0 0.0 0.00 0.00 0.00 77 1017.3
20260502102038 32 239 0.0 0.0 0.00 0.00 0.00 79 1017.3
20260502101307 32 239 0.0 0.0 0.00 0.00 0.00 80 1017.4
20260502100805 32 239 0.0 1.0 0.00 0.00 0.00 80 1017.4
20260502100305 32 240 0.0 1.0 0.00 0.00 0.00 79 1017.4
20260502091256 33 234 0.0 0.0 0.00 0.00 0.00 78 1017.4
20260502090756 33 234 0.0 0.0 0.00 0.00 0.00 78 1017.3
20260502090249 33 234 0.0 0.0 0.00 0.00 0.00 79 1017.3
20260502071310 36 231 0.0 0.0 0.00 0.00 0.00 70 1017.6
20260502070532 36 231 0.0 0.0 0.00 0.00 0.00 75 1017.6
20260502070026 36 231 0.0 0.0 0.00 0.00 0.00 73 1017.6
20260502065751 36 231 0.0 0.0 0.00 0.00 0.00 73 1017.6
20260502065014 36 231 0.0 0.0 0.00 0.00 0.00 67 1017.7
20260502064508 35 231 0.0 0.0 0.00 0.00 0.00 66 1017.6
20260502064002 35 231 0.0 0.0 0.00 0.00 0.00 66 1017.6
20260502063456 35 232 0.0 0.0 0.00 0.00 0.00 66 1017.7
20260502062949 36 232 0.0 0.0 0.00 0.00 0.00 66 1017.6
20260502062445 36 232 0.0 0.0 0.00 0.00 0.00 65 1017.6
20260502061938 36 233 0.0 0.0 0.00 0.00 0.00 65 1017.6
20260502061431 35 235 0.0 0.0 0.00 0.00 0.00 66 1017.6
20260502060926 35 235 0.0 1.0 0.00 0.00 0.00 65 1017.6
20260502060420 36 235 0.0 1.0 0.00 0.00 0.00 65 1017.6
20260502055914 36 235 0.0 1.0 0.00 0.00 0.00 65 1017.6
20260502055408 36 236 0.0 1.0 0.00 0.00 0.00 64 1017.6
20260502054902 36 229 0.0 1.0 0.00 0.00 0.00 63 1017.6
20260502054356 36 226 0.0 1.0 0.00 0.00 0.00 63 1017.6
20260502053851 36 229 0.0 0.0 0.00 0.00 0.00 63 1017.6
20260502053845 37 233 0.0 0.0 0.00 0.00 0.00 63 1017.7
20260502052838 37 232 0.0 1.0 0.00 0.00 0.00 61 1017.7
20260502052332 37 231 1.0 1.0 0.00 0.00 0.00 60 1017.7
20260502051826 38 231 1.0 1.0 0.00 0.00 0.00 60 1017.7
20260502051320 38 241 0.0 1.0 0.00 0.00 0.00 59 1017.7
20260502050814 39 248 0.0 0.0 0.00 0.00 0.00 60 1017.7
20260502050309 39 248 0.0 0.0 0.00 0.00 0.00 61 1017.7
20260502050032 40 248 0.0 0.0 0.00 0.00 0.00 60 1017.7
20260502045256 40 248 0.0 0.0 0.00 0.00 0.00 54 1017.7
20260502044749 40 248 0.0 0.0 0.00 0.00 0.00 54 1017.7
20260502044516 41 248 0.0 0.0 0.00 0.00 0.00 54 1017.7
20260502043738 41 248 0.0 0.0 0.00 0.00 0.00 52 1017.7
20260502043232 41 248 0.0 0.0 0.00 0.00 0.00 52 1017.7
20260502042957 41 248 0.0 0.0 0.00 0.00 0.00 52 1017.7
20260502042450 41 248 0.0 0.0 0.00 0.00 0.00 52 1017.7
20260502041714 42 250 0.0 0.0 0.00 0.00 0.00 52 1017.7
20260502041207 42 251 0.0 0.0 0.00 0.00 0.00 51 1017.7
20260502040708 42 254 0.0 0.0 0.00 0.00 0.00 51 1017.7
20260502040208 42 237 0.0 0.0 0.00 0.00 0.00 51 1017.7
20260502035938 42 233 0.0 0.0 0.00 0.00 0.00 50 1017.7
20260502035206 42 238 0.0 1.0 0.00 0.00 0.00 50 1017.7
20260502034933 42 233 0.0 1.0 0.00 0.00 0.00 50 1017.7
20260502034203 42 250 0.0 1.0 0.00 0.00 0.00 50 1017.7
20260502033702 42 240 0.0 1.0 0.00 0.00 0.00 49 1017.7
20260502033201 42 231 0.0 1.0 0.00 0.00 0.00 48 1017.7
20260502032701 43 233 0.0 0.0 0.00 0.00 0.00 47 1017.8
20260502032431 43 233 0.0 1.0 0.00 0.00 0.00 47 1017.8
20260502031700 43 235 0.0 1.0 0.00 0.00 0.00 47 1017.7
20260502031202 43 233 0.0 0.0 0.00 0.00 0.00 46 1017.7
20260502030700 43 233 0.0 0.0 0.00 0.00 0.00 45 1017.7
20260502030202 44 233 0.0 0.0 0.00 0.00 0.00 46 1017.7
20260502025658 44 241 0.0 2.0 0.00 0.00 0.00 45 1017.7
20260502025156 44 250 0.0 2.0 0.00 0.00 0.00 44 1017.7
20260502024657 44 301 0.0 1.0 0.00 0.00 0.00 44 1017.7
20260502024156 44 242 0.0 1.0 0.00 0.00 0.00 43 1017.7
20260502023927 44 245 0.0 1.0 0.00 0.00 0.00 43 1017.7
20260502023428 44 250 0.0 1.0 0.00 0.00 0.00 43 1017.7
20260502022658 44 233 0.0 1.0 0.00 0.00 0.00 43 1017.7
20260502022427 45 238 0.0 1.0 0.00 0.00 0.00 42 1017.7
20260502021929 45 238 0.0 0.0 0.00 0.00 0.00 41 1017.7
20260502021154 45 243 0.0 0.0 0.00 0.00 0.00 42 1017.6
20260502020653 45 269 0.0 0.0 0.00 0.00 0.00 41 1017.6
20260502020154 46 269 0.0 0.0 0.00 0.00 0.00 41 1017.5
20260502015652 46 269 0.0 0.0 0.00 0.00 0.00 40 1017.5
20260502015152 46 245 0.0 0.0 0.00 0.00 0.00 41 1017.5
20260502014652 47 245 0.0 0.0 0.00 0.00 0.00 40 1017.4
20260502014158 47 245 0.0 1.0 0.00 0.00 0.00 39 1017.3
20260502014153 47 245 0.0 0.0 0.00 0.00 0.00 39 1017.4
20260502013154 48 245 0.0 1.0 0.00 0.00 0.00 37 1017.3
20260502012922 48 323 0.0 0.0 0.00 0.00 0.00 37 1017.3
20260502012149 49 323 0.0 1.0 0.00 0.00 0.00 36 1017.3
20260502011921 49 324 0.0 3.0 0.00 0.00 0.00 35 1017.2
20260502011419 49 310 0.0 3.0 0.00 0.00 0.00 35 1017.2
20260502010649 50 308 0.0 2.0 0.00 0.00 0.00 36 1017.2
20260502010155 51 316 2.0 7.0 0.00 0.00 0.00 34 1017.1
20260502010150 50 292 0.0 4.0 0.00 0.00 0.00 35 1017.2
20260502005148 51 299 2.0 7.0 0.00 0.00 0.00 36 1017.2
20260502004920 51 6 1.0 7.0 0.00 0.00 0.00 37 1017.1
20260502004145 51 325 1.0 5.0 0.00 0.00 0.00 33 1017.1
20260502003642 51 278 1.0 5.0 0.00 0.00 0.00 33 1017.1
20260502003144 52 347 2.0 5.0 0.00 0.00 0.00 37 1017.1
20260502002643 52 329 3.0 7.0 0.00 0.00 0.00 35 1017.1
20260502002140 52 331 4.0 8.0 0.00 0.00 0.00 34 1017.1
20260502001913 52 340 5.0 8.0 0.00 0.00 0.00 38 1017.1
20260502001141 52 350 5.0 11.0 0.00 0.00 0.00 38 1017.1
20260502000910 52 5 3.0 11.0 0.00 0.00 0.00 36 1017.1
20260502000140 52 300 1.0 6.0 0.00 0.00 0.00 34 1017.1
20260501235640 52 303 1.0 5.0 0.00 0.00 0.00 34 1017.1
20260501235137 52 246 1.0 5.0 0.00 0.00 0.00 34 1017.1
20260501234638 52 276 2.0 5.0 0.00 0.00 0.00 32 1017.1
20260501234137 52 330 3.0 7.0 0.00 0.00 0.00 33 1017.1
20260501233637 52 27 3.0 7.0 0.00 0.00 0.00 33 1017.1
20260501233136 52 333 4.0 10.0 0.00 0.00 0.00 33 1017.1
20260501232639 53 321 5.0 13.0 0.00 0.00 0.00 33 1017.1
20260501232138 53 351 6.0 13.0 0.00 0.00 0.00 33 1017.0
20260501231630 53 345 5.0 11.0 0.00 0.00 0.00 40 1017.1
20260501231123 53 335 5.0 10.0 0.00 0.00 0.00 34 1017.1
20260501230621 53 300 7.0 11.0 0.00 0.00 0.00 34 1017.1
20260501230120 53 328 7.0 16.0 0.00 0.00 0.00 37 1017.1
20260501225621 54 345 6.0 16.0 0.00 0.00 0.00 32 1017.0
20260501225122 53 345 6.0 14.0 0.00 0.00 0.00 33 1017.0
20260501224620 53 296 6.0 14.0 0.00 0.00 0.00 33 1017.0
20260501224120 54 346 6.0 18.0 0.00 0.00 0.00 36 1017.1
20260501223618 54 43 5.0 18.0 0.00 0.00 0.00 33 1017.0
20260501223350 54 317 3.0 12.0 0.00 0.00 0.00 34 1017.0
20260501222618 54 285 3.0 10.0 0.00 0.00 0.00 32 1016.9
20260501222119 53 6 3.0 10.0 0.00 0.00 0.00 38 1017.0
20260501221851 53 278 2.0 5.0 0.00 0.00 0.00 31 1017.0
20260501221116 53 331 2.0 5.0 0.00 0.00 0.00 34 1017.1
20260501220845 53 326 2.0 8.0 0.00 0.00 0.00 34 1017.1
20260501220116 53 4 3.0 10.0 0.00 0.00 0.00 33 1017.1
20260501215615 53 5 5.0 16.0 0.00 0.00 0.00 35 1017.1
20260501215116 53 15 6.0 16.0 0.00 0.00 0.00 32 1017.1
20260501214616 54 32 5.0 11.0 0.00 0.00 0.00 36 1017.0
20260501214110 54 338 4.0 10.0 0.00 0.00 0.00 31 1017.1
20260501213604 54 6 4.0 10.0 0.00 0.00 0.00 35 1017.1
20260501213059 54 339 5.0 10.0 0.00 0.00 0.00 32 1017.1
20260501212552 53 309 5.0 9.0 0.00 0.00 0.00 34 1017.1
20260501212045 53 8 4.0 9.0 0.00 0.00 0.00 34 1017.2
20260501211540 52 358 1.0 9.0 0.00 0.00 0.00 36 1017.2
20260501211305 52 26 2.0 6.0 0.00 0.00 0.00 31 1017.2
20260501210527 52 349 4.0 12.0 0.00 0.00 0.00 34 1017.3
20260501210022 52 325 7.0 14.0 0.00 0.00 0.00 35 1017.3
20260501205747 52 32 7.0 14.0 0.00 0.00 0.00 35 1017.2
20260501205010 52 25 5.0 13.0 0.00 0.00 0.00 36 1017.3
20260501204505 53 39 4.0 11.0 0.00 0.00 0.00 32 1017.3
20260501203958 53 333 4.0 11.0 0.00 0.00 0.00 36 1017.3
20260501203452 52 344 4.0 12.0 0.00 0.00 0.00 33 1017.3
20260501202946 52 315 3.0 12.0 0.00 0.00 0.00 32 1017.5
20260501202711 52 316 2.0 9.0 0.00 0.00 0.00 33 1017.5
20260501201934 51 258 3.0 10.0 0.00 0.00 0.00 35 1017.6
20260501201428 51 1 4.0 10.0 0.00 0.00 0.00 35 1017.6
20260501201153 51 330 4.0 8.0 0.00 0.00 0.00 38 1017.6
20260501201043 52 41 3.0 8.0 0.00 0.00 0.00 35 1017.5
20260501195910 52 4 3.0 8.0 0.00 0.00 0.00 38 1017.6
20260501195404 51 1 2.0 6.0 0.00 0.00 0.00 38 1017.6
20260501194858 51 345 1.0 7.0 0.00 0.00 0.00 37 1017.6
20260501194352 51 94 2.0 7.0 0.00 0.00 0.00 34 1017.6
20260501193846 51 18 4.0 15.0 0.00 0.00 0.00 35 1017.6
20260501193340 50 1 7.0 17.0 0.00 0.00 0.00 39 1017.7
20260501192836 50 339 4.0 17.0 0.00 0.00 0.00 42 1017.7
20260501192336 50 46 3.0 13.0 0.00 0.00 0.00 37 1017.6
20260501191836 49 317 5.0 8.0 0.00 0.00 0.00 39 1017.6
20260501191336 49 20 5.0 8.0 0.00 0.00 0.00 36 1017.7
20260501190836 50 358 5.0 15.0 0.00 0.00 0.00 41 1017.7
20260501190606 50 284 5.0 15.0 0.00 0.00 0.00 39 1017.8
20260501185836 49 6 5.0 13.0 0.00 0.00 0.00 39 1017.8
20260501185336 50 49 5.0 13.0 0.00 0.00 0.00 43 1017.7
20260501184836 50 81 5.0 11.0 0.00 0.00 0.00 37 1017.8
20260501184335 50 76 5.0 15.0 0.00 0.00 0.00 39 1017.8
20260501183837 50 277 4.0 15.0 0.00 0.00 0.00 39 1017.9
20260501183335 50 259 4.0 12.0 0.00 0.00 0.00 36 1017.8
20260501182836 50 274 5.0 12.0 0.00 0.00 0.00 40 1017.9
20260501182336 50 339 4.0 11.0 0.00 0.00 0.00 38 1018.0
20260501181837 49 335 5.0 11.0 0.00 0.00 0.00 38 1018.0
20260501181608 49 347 9.0 18.0 0.00 0.00 0.00 40 1018.0
20260501180836 49 359 8.0 18.0 0.00 0.00 0.00 41 1018.0
20260501180331 49 340 3.0 17.0 0.00 0.00 0.00 40 1018.1
20260501175825 49 333 5.0 14.0 0.00 0.00 0.00 37 1018.1